sat.trackr.live / text

‹ back to catalog

STARLINK-35394

NORAD 66023 · 2025-232U

PAYLOAD ACTIVE UNKNOWN

§ Identity

Operator
Country
US
Launch date
2025-10-16
Launch site
AFETR
Launch vehicle
Mass (kg)
RCS (m²)

Purposes: comms

External: N2YO · Heavens-Above · Gunter

§ Orbital elements

Epoch: 2026-05-25T03:24:54.480672Z

Period
94.10 min
Inclination
53.1584°
Eccentricity
0.0001432
Mean motion
15.30212369 rev/d
Perigee alt
474.2 km
Apogee alt
476.2 km
Semi-major
6,853.3 km
B*
7.9052e-4
RAAN
108.5860°
Arg perigee
140.0356°
Mean anomaly
220.0751°
Rev number
3,514

§ Raw data

STARLINK-353941 66023U 25232U   26145.14229723  .00023136  00000+0  79052-3 0  99992 66023  53.1584 108.5860 0001432 140.0356 220.0751 15.30212369 35144

JSON: /api/v1/satellites/66023 · /tle

For live sub-satellite position, see the globe view (requires WebGL).

§ Visibility from observer

Set your observer location to see the next 7 days of passes ≥ 10°. The values pass through the URL so the page stays shareable.

No JS? Fill the form by hand. The geolocation button needs JavaScript.